Regional Weather Roundup
Issued by NWS Cleveland, OH

Home | Current Version | Previous Version | Graphics & Text | Print | Product List | Glossary On
Versions: 1 2 3 4 5 6 7 8 9 10 11 12 13 14 15 16 17 18 19 20 21 22 23 24 25 26 27 28 29 30 31 32 33 34 35 36 37 38 39 40 41 42 43 44 45 46 47 48 49 50
000
ASUS41 KCLE 242100
RWRCLE
OHIO REGIONAL WEATHER ROUNDUP
NATIONAL WEATHER SERVICE WILMINGTON, OH
400 PM EST WED DEC 24 2014

NOTE: "FAIR" INDICATES FEW OR NO CLOUDS BELOW 12,000 FEET WITH NO
SIGNIFICANT WEATHER AND/OR OBSTRUCTIONS TO VISIBILITY.

OHZ001>008-015>018-024>027-034-035-043-044-242200-
   NORTHWEST OHIO

CITY           SKY/WX    TMP DP  RH WIND       PRES   REMARKS
DEFIANCE       RAIN      43  41  93 NW7       29.31F FOG
FINDLAY        LGT RAIN  48  46  93 W6        29.29F FOG
TOLEDO EXPRESS RAIN      43  42  97 NW8       29.29F FOG
TOLEDO METCALF RAIN      52  50  93 W7        29.29F FOG
LIMA           LGT RAIN  47  45  93 W10       29.31F FOG
$$

OHZ009>014-019>023-028>033-038-089-242200-
   NORTHEAST OHIO

CITY           SKY/WX    TMP DP  RH WIND       PRES   REMARKS
CLE-HOPKINS    CLOUDY    58  53  84 S15G24    29.36F
CLE-LAKEFRONT  CLOUDY    59  53  80 S14       29.32F
CUY CO. ARPT   MOCLDY    59  55  88 S16       29.35F
LORAIN-ELYRIA  CLOUDY    56  53  90 S15       29.33F
ASHTABULA      CLOUDY    56  51  84 S9        29.39F
AKRON-CANTON   CLOUDY    57  52  83 S12       29.38F
WOOSTER        NOT AVBL
MANSFIELD      CLOUDY    56  55  97 S15       29.34F
YOUNGSTOWN     CLOUDY    56  51  84 S7        29.41F
$$

OHZ042-051>053-060>062-070>072-077>081-242200-
  SOUTHWEST OHIO

CITY           SKY/WX    TMP DP  RH WIND       PRES   REMARKS
CINC-COVINGTON RAIN      44  39  82 W16       29.44R
CINC-LUNKEN    RAIN      46 N/A N/A W21G28    29.44R
HAMILTON       LGT RAIN  45  43  93 W14G22    29.44R
DAYTON         RAIN      45  43  93 W21G29    29.39R FOG
WRIGHT-PAT AFB RAIN      54  52  94 W22G48    29.36R FOG
DAYTON GENERAL CLOUDY    46  44  93 W15       29.38R
WILMINGTON     HVY RAIN  52  50  93 W28G41    29.36R SQUALL  VSB 1/2
$$

OHZ036-037-039>041-045>050-054>059-063>069-073>076-082>088-242200-
  CENTRAL AND SOUTHEAST OHIO

CITY           SKY/WX    TMP DP  RH WIND       PRES   REMARKS
COLUMBUS       CLOUDY    57  53  86 SE10      29.33F
OSU AIRPORT    CLOUDY    57  54  89 SE13      29.32F
BOLTON FIELD   CLOUDY    57  55  94 SE12      29.34F
RICKENBACK AFB NOT AVBL
NEWARK         CLOUDY    58  53  84 S6        29.35F
MARION         CLOUDY    56  54  93 S14       29.31F
LANCASTER      CLOUDY    59  54  83 SE9       29.36F
ZANESVILLE     CLOUDY    57  52  83 SE8       29.39F
NEW PHILLY     CLOUDY    61  53  75 S8        29.40F
$$


USA.gov is the U.S. government's official web portal to all federal, state and local government web resources and services.